Change the Weather History Date:

Tuesday, January 8, 2013

  Actual Average (KPKB) Record (KPKB)
Temperature  
Mean Temperature 34 °F 32 °F  
Max Temperature 51 °F 40 °F 71 °F (1937)
Min Temperature 18 °F 23 °F -11 °F (1968)
Degree Days  
Heating Degree Days 30 34  
Month to date heating degree days 265  
Cooling Degree Days 0 0  
Month to date cooling degree days 0  
Year to date cooling degree days 0  
Moisture  
Dew Point 24 °F    
Average Humidity 75    
Maximum Humidity 93    
Minimum Humidity 42    
Precipitation  
Precipitation 0.00 in 0.09 in 0.28 in (2005)
Sea Level Pressure  
Sea Level Pressure 30.30 in    
Wind  
Wind Speed 2 mph (SW)    
Max Wind Speed 13 mph    
Max Gust Speed 17 mph    
Visibility 8 miles    
Events      
T = Trace of Precipitation, MM = Missing Value Source: NWS Daily Summary

Daily Weather History Graph

Daily Weather History Graph

Search for Another Location

Airport or City:

Trip Planner

Search our weather history database for the weather conditions in past years. The results will help you decide how hot, cold, wet, or windy it might be!

Date:

Astronomy

Jan. 08, 2013 Rise Set
Actual Time 7:48 AM EST 5:23 PM EST
Civil Twilight 7:18 AM EST 5:53 PM EST
Nautical Twilight 6:45 AM EST 6:26 PM EST
Astronomical Twilight 6:13 AM EST 6:58 PM EST
Moon 4:20 AM EST (1/8) 2:24 PM EST (1/8)
Length of Visible Light 10h 34m
Length of Day
9h 34m
Waning Crescent, 14% of the Moon is Illuminated
Jan 8
Waning Crescent
Jan 11
New
Jan 18
First Quarter
Jan 26
Full
Feb 3
Last Quarter

Hourly Weather History & Observations

Time (EST) Temp. Windchill Dew Point Humidity Pressure Visibility Wind Dir Wind Speed Gust Speed Precip Events Conditions
12:15 AM 20.7 °F - 18.5 °F 91% 30.25 in 5.0 mi Calm Calm - N/A   Clear
12:55 AM 21.0 °F 16.2 °F 19.4 °F 93% 30.27 in 5.0 mi WSW 3.5 mph - N/A   Clear
1:35 AM 20.5 °F - 18.3 °F 91% 30.27 in 5.0 mi Calm Calm - N/A   Clear
2:15 AM 20.7 °F - 18.5 °F 91% 30.26 in 5.0 mi Calm Calm - N/A   Clear
2:35 AM 19.9 °F - 18.0 °F 92% 30.26 in 5.0 mi Calm Calm - N/A   Clear
2:55 AM 19.9 °F - 18.0 °F 92% 30.26 in 5.0 mi Calm Calm - N/A   Clear
3:15 AM 18.9 °F - 16.7 °F 91% 30.26 in 5.0 mi Calm Calm - N/A   Clear
3:35 AM 18.5 °F - 16.3 °F 91% 30.27 in 5.0 mi Calm Calm - N/A   Clear
3:55 AM 18.5 °F - 16.3 °F 91% 30.28 in 7.0 mi Calm Calm - N/A   Clear
4:15 AM 19.4 °F - 17.2 °F 91% 30.28 in 5.0 mi Calm Calm - N/A   Clear
4:35 AM 19.2 °F - 17.1 °F 91% 30.28 in 5.0 mi Calm Calm - N/A   Clear
4:55 AM 18.7 °F - 16.5 °F 91% 30.29 in 5.0 mi Calm Calm - N/A   Clear
5:15 AM 19.0 °F - 16.7 °F 91% 30.29 in 5.0 mi Calm Calm - N/A   Clear
5:35 AM 19.0 °F - 16.5 °F 90% 30.29 in 7.0 mi Calm Calm - N/A   Clear
5:55 AM 18.3 °F - 15.8 °F 90% 30.29 in 7.0 mi Calm Calm - N/A   Clear
6:15 AM 18.3 °F - 16.0 °F 91% 30.30 in 5.0 mi Calm Calm - N/A   Clear
6:55 AM 18.5 °F - 15.8 °F 89% 30.31 in 7.0 mi Calm Calm - N/A   Clear
7:15 AM 18.3 °F - 15.8 °F 90% 30.32 in 5.0 mi Calm Calm - N/A   Clear
7:35 AM 18.3 °F - 15.8 °F 90% 30.33 in 7.0 mi Calm Calm - N/A   Clear
7:55 AM 19.2 °F - 16.7 °F 90% 30.33 in 5.0 mi Calm Calm - N/A   Clear
8:15 AM 18.9 °F - 16.5 °F 91% 30.34 in 5.0 mi Calm Calm - N/A   Clear
8:35 AM 19.9 °F - 17.4 °F 90% 30.34 in 7.0 mi Calm Calm - N/A   Clear
8:55 AM 21.0 °F - 18.7 °F 91% 30.35 in 5.0 mi Calm Calm - N/A   Clear
9:15 AM 22.8 °F - 20.5 °F 91% 30.36 in 5.0 mi Calm Calm - N/A   Clear
9:35 AM 26.2 °F 22.1 °F 23.9 °F 91% 30.36 in 7.0 mi SW 3.5 mph - N/A   Clear
9:55 AM 30.4 °F 25.6 °F 25.7 °F 83% 30.36 in 10.0 mi SSW 4.6 mph - N/A   Clear
10:15 AM 31.8 °F 27.3 °F 25.5 °F 78% 30.36 in 10.0 mi SSW 4.6 mph - N/A   Clear
10:35 AM 32.4 °F 27.9 °F 25.7 °F 76% 30.36 in 10.0 mi SSW 4.6 mph - N/A   Clear
11:15 AM 36.7 °F 31.2 °F 28.2 °F 71% 30.36 in 10.0 mi SSW 6.9 mph - N/A   Clear
11:35 AM 39.6 °F 36.3 °F 29.3 °F 67% 30.36 in 10.0 mi SSW 4.6 mph - N/A   Clear
11:55 AM 41.7 °F 37.3 °F 29.7 °F 62% 30.34 in 10.0 mi SSW 6.9 mph - N/A   Clear
12:15 PM 45.0 °F 41.8 °F 30.2 °F 56% 30.34 in 10.0 mi SW 5.8 mph - N/A   Clear
12:35 PM 47.3 °F - 30.4 °F 52% 30.33 in 10.0 mi SW 4.6 mph - N/A   Clear
12:55 PM 47.5 °F - 30.4 °F 52% 30.32 in 10.0 mi WSW 10.4 mph 16.1 mph N/A   Clear
1:15 PM 48.4 °F - 29.7 °F 48% 30.31 in 10.0 mi WSW 8.1 mph - N/A   Clear
1:35 PM 50.2 °F - 30.2 °F 46% 30.30 in 10.0 mi WSW 8.1 mph - N/A   Clear
1:55 PM 50.9 °F - 30.2 °F 45% 30.29 in 10.0 mi West 12.7 mph 17.3 mph N/A   Clear
2:15 PM 48.4 °F - 29.8 °F 49% 30.29 in 10.0 mi WSW 9.2 mph 17.3 mph N/A   Clear
2:35 PM 51.1 °F - 29.7 °F 44% 30.29 in 10.0 mi South 8.1 mph - N/A   Clear
2:55 PM 50.2 °F - 29.1 °F 44% 30.29 in 10.0 mi WSW 6.9 mph - N/A   Clear
3:15 PM 49.3 °F - 29.3 °F 46% 30.30 in 10.0 mi WSW 6.9 mph - N/A   Clear
3:35 PM 49.8 °F - 30.0 °F 47% 30.30 in 10.0 mi SW 3.5 mph - N/A   Clear
3:55 PM 50.9 °F - 28.2 °F 42% 30.30 in 10.0 mi SW 4.6 mph - N/A   Clear
4:15 PM 50.5 °F - 28.6 °F 43% 30.30 in 10.0 mi SSE 5.8 mph - N/A   Clear
4:35 PM 50.0 °F - 28.8 °F 44% 30.29 in 10.0 mi Calm Calm - N/A   Clear
4:55 PM 49.6 °F - 27.9 °F 43% 30.29 in 10.0 mi Calm Calm - N/A   Clear
5:15 PM 46.6 °F - 28.0 °F 49% 30.30 in 10.0 mi Calm Calm - N/A   Clear
5:35 PM 44.8 °F 43.3 °F 27.9 °F 52% 30.29 in 10.0 mi South 3.5 mph - N/A   Clear
5:55 PM 41.9 °F - 27.3 °F 56% 30.29 in 10.0 mi Calm Calm - N/A   Clear
6:15 PM 39.6 °F - 28.2 °F 64% 30.29 in 10.0 mi Calm Calm - N/A   Clear
6:35 PM 37.2 °F - 27.5 °F 68% 30.30 in 10.0 mi Calm Calm - N/A   Clear
6:55 PM 35.2 °F - 27.5 °F 73% 30.30 in 10.0 mi Calm Calm - N/A   Clear
7:15 PM 34.2 °F - 27.7 °F 77% 30.29 in 10.0 mi Calm Calm - N/A   Clear
7:35 PM 33.8 °F - 27.1 °F 77% 30.29 in 10.0 mi Calm Calm - N/A   Clear
7:55 PM 31.8 °F - 26.6 °F 81% 30.30 in 10.0 mi Calm Calm - N/A   Clear
8:15 PM 30.9 °F - 26.2 °F 83% 30.29 in 10.0 mi Calm Calm - N/A   Clear
8:35 PM 31.3 °F - 26.8 °F 83% 30.29 in 10.0 mi Calm Calm - N/A   Clear
8:55 PM 29.3 °F - 25.3 °F 85% 30.29 in 10.0 mi Calm Calm - N/A   Clear
9:15 PM 29.5 °F - 25.5 °F 85% 30.29 in 10.0 mi Calm Calm - N/A   Clear
9:35 PM 29.1 °F - 25.5 °F 86% 30.29 in 10.0 mi Calm Calm - N/A   Clear
10:15 PM 27.7 °F - 24.8 °F 89% 30.29 in 10.0 mi Calm Calm - N/A   Clear
10:35 PM 28.2 °F - 25.3 °F 89% 30.29 in 10.0 mi Calm Calm - N/A   Clear
10:55 PM 27.3 °F - 24.3 °F 88% 30.28 in 10.0 mi Calm Calm - N/A   Clear
11:15 PM 27.1 °F - 23.9 °F 88% 30.29 in 10.0 mi Calm Calm - N/A   Clear
11:35 PM 26.8 °F - 24.3 °F 90% 30.28 in 10.0 mi Calm Calm - N/A   Clear